| time (UTC) | temp C | wind direction | speed KPH | gust KPH | rain 1hr cm | rain 24hr cm | rain mn cm | humidity % | barometer mb |
| 20260906145753 | 33 | 172 | 3.2 | 11.3 | 0.00 | 0.00 | 0.00 | 71 | 1004.6 |
| 20260906145251 | 33 | 144 | 11.3 | 11.3 | 0.00 | 0.00 | 0.00 | 71 | 1004.4 |
| 20260906144747 | 33 | 122 | 9.7 | 14.5 | 0.00 | 0.00 | 0.00 | 71 | 1004.5 |
| 20260906144242 | 34 | 123 | 4.8 | 14.5 | 0.00 | 0.00 | 0.00 | 70 | 1004.3 |
| 20260906143741 | 33 | 147 | 9.7 | 12.9 | 0.00 | 0.00 | 0.00 | 70 | 1004.3 |
| 20260906143239 | 34 | 137 | 9.7 | 14.5 | 0.00 | 0.00 | 0.00 | 69 | 1004.4 |
| 20260906142738 | 34 | 138 | 4.8 | 14.5 | 0.00 | 0.00 | 0.00 | 69 | 1004.2 |
| 20260906142233 | 34 | 130 | 11.3 | 16.1 | 0.00 | 0.00 | 0.00 | 68 | 1004.4 |
| 20260906141732 | 34 | 133 | 0.0 | 12.9 | 0.00 | 0.00 | 0.00 | 67 | 1004.3 |
| 20260906141227 | 34 | 137 | 9.7 | 12.9 | 0.00 | 0.00 | 0.00 | 67 | 1004.1 |
| 20260906140727 | 34 | 150 | 8.0 | 14.5 | 0.00 | 0.00 | 0.00 | 68 | 1004.1 |
| 20260906140221 | 34 | 141 | 11.3 | 14.5 | 0.00 | 0.00 | 0.00 | 69 | 1004.1 |
| 20260906135718 | 34 | 135 | 8.0 | 14.5 | 0.00 | 0.00 | 0.00 | 70 | 1004.1 |
| 20260906135214 | 34 | 145 | 4.8 | 19.3 | 0.00 | 0.00 | 0.00 | 69 | 1004.1 |
| 20260906134710 | 34 | 153 | 12.9 | 14.5 | 0.00 | 0.00 | 0.00 | 69 | 1004.2 |
| 20260906134205 | 34 | 168 | 11.3 | 14.5 | 0.00 | 0.00 | 0.00 | 69 | 1004.2 |
| 20260906133700 | 34 | 142 | 9.7 | 16.1 | 0.00 | 0.00 | 0.00 | 69 | 1004.3 |
| 20260906133155 | 34 | 172 | 8.0 | 17.7 | 0.00 | 0.00 | 0.00 | 69 | 1004.3 |
| 20260906132651 | 34 | 138 | 4.8 | 14.5 | 0.00 | 0.00 | 0.00 | 69 | 1004.1 |
| 20260906132147 | 34 | 135 | 9.7 | 17.7 | 0.00 | 0.00 | 0.00 | 67 | 1004.1 |
| 20260906131642 | 35 | 153 | 14.5 | 17.7 | 0.00 | 0.00 | 0.00 | 67 | 1004.1 |
| 20260906131137 | 34 | 130 | 14.5 | 17.7 | 0.00 | 0.00 | 0.00 | 67 | 1004.1 |
| 20260906130632 | 35 | 157 | 11.3 | 17.7 | 0.00 | 0.00 | 0.00 | 67 | 1004.0 |
| 20260906130127 | 35 | 170 | 4.8 | 16.1 | 0.00 | 0.00 | 0.00 | 69 | 1004.1 |
| 20260906125624 | 35 | 146 | 12.9 | 17.7 | 0.00 | 0.00 | 0.00 | 67 | 1004.0 |
| 20260906125124 | 35 | 159 | 8.0 | 17.7 | 0.00 | 0.00 | 0.00 | 68 | 1004.0 |
| 20260906124619 | 35 | 169 | 11.3 | 16.1 | 0.00 | 0.00 | 0.00 | 70 | 1003.9 |
| 20260906124114 | 35 | 144 | 6.4 | 19.3 | 0.00 | 0.00 | 0.00 | 68 | 1003.9 |
| 20260906123614 | 35 | 146 | 12.9 | 20.9 | 0.00 | 0.00 | 0.00 | 67 | 1003.9 |
| 20260906123109 | 35 | 130 | 9.7 | 19.3 | 0.00 | 0.00 | 0.00 | 68 | 1004.1 |
| 20260906122608 | 35 | 119 | 14.5 | 17.7 | 0.00 | 0.00 | 0.00 | 67 | 1003.8 |
| 20260906122104 | 35 | 150 | 12.9 | 17.7 | 0.00 | 0.00 | 0.00 | 68 | 1003.9 |
| 20260906121600 | 35 | 127 | 8.0 | 20.9 | 0.00 | 0.00 | 0.00 | 67 | 1004.0 |
| 20260906121056 | 35 | 177 | 14.5 | 17.7 | 0.00 | 0.00 | 0.00 | 68 | 1004.2 |
| 20260906120551 | 35 | 147 | 12.9 | 19.3 | 0.00 | 0.00 | 0.00 | 67 | 1004.0 |
| 20260906120049 | 35 | 130 | 9.7 | 17.7 | 0.00 | 0.00 | 0.00 | 66 | 1004.1 |
| 20260906115548 | 35 | 157 | 11.3 | 16.1 | 0.00 | 0.00 | 0.00 | 66 | 1004.0 |
| 20260906115044 | 35 | 163 | 9.7 | 24.1 | 0.00 | 0.00 | 0.00 | 66 | 1004.2 |
| 20260906114544 | 35 | 152 | 12.9 | 24.1 | 0.00 | 0.00 | 0.00 | 66 | 1004.3 |
| 20260906114039 | 35 | 143 | 4.8 | 17.7 | 0.00 | 0.00 | 0.00 | 65 | 1004.2 |
| 20260906113538 | 35 | 175 | 14.5 | 20.9 | 0.00 | 0.00 | 0.00 | 66 | 1004.3 |
| 20260906113033 | 35 | 147 | 4.8 | 17.7 | 0.00 | 0.00 | 0.00 | 66 | 1004.3 |
| 20260906112528 | 35 | 134 | 11.3 | 20.9 | 0.00 | 0.00 | 0.00 | 65 | 1004.4 |
| 20260906112025 | 36 | 147 | 9.7 | 16.1 | 0.00 | 0.00 | 0.00 | 63 | 1004.3 |
| 20260906111524 | 35 | 137 | 6.4 | 17.7 | 0.00 | 0.00 | 0.00 | 65 | 1004.4 |
| 20260906111020 | 35 | 134 | 11.3 | 17.7 | 0.00 | 0.00 | 0.00 | 64 | 1004.4 |
| 20260906110520 | 35 | 155 | 17.7 | 19.3 | 0.00 | 0.00 | 0.00 | 64 | 1004.7 |
| 20260906110019 | 36 | 163 | 4.8 | 17.7 | 0.00 | 0.00 | 0.00 | 64 | 1004.6 |
| 20260906105514 | 35 | 146 | 11.3 | 24.1 | 0.00 | 0.00 | 0.00 | 65 | 1004.5 |
| 20260906105010 | 35 | 151 | 14.5 | 20.9 | 0.00 | 0.00 | 0.00 | 63 | 1004.5 |
| 20260906104508 | 35 | 103 | 3.2 | 24.1 | 0.00 | 0.00 | 0.00 | 62 | 1004.6 |
| 20260906104003 | 35 | 126 | 4.8 | 19.3 | 0.00 | 0.00 | 0.00 | 64 | 1004.9 |
| 20260906103501 | 36 | 155 | 9.7 | 16.1 | 0.00 | 0.00 | 0.00 | 63 | 1004.7 |
| 20260906102956 | 35 | 125 | 4.8 | 20.9 | 0.00 | 0.00 | 0.00 | 64 | 1004.5 |
| 20260906102451 | 36 | 140 | 8.0 | 20.9 | 0.00 | 0.00 | 0.00 | 61 | 1004.7 |
| 20260906101951 | 36 | 128 | 11.3 | 14.5 | 0.00 | 0.00 | 0.00 | 61 | 1004.7 |
| 20260906101446 | 36 | 182 | 6.4 | 16.1 | 0.00 | 0.00 | 0.00 | 61 | 1004.7 |
| 20260906100946 | 36 | 159 | 4.8 | 17.7 | 0.00 | 0.00 | 0.00 | 61 | 1004.8 |
| 20260906100441 | 36 | 127 | 8.0 | 16.1 | 0.00 | 0.00 | 0.00 | 63 | 1004.6 |
| 20260906095936 | 35 | 132 | 11.3 | 19.3 | 0.00 | 0.00 | 0.00 | 63 | 1004.8 |
| 20260906095431 | 36 | 148 | 8.0 | 16.1 | 0.00 | 0.00 | 0.00 | 62 | 1004.8 |
| 20260906094926 | 36 | 139 | 9.7 | 16.1 | 0.00 | 0.00 | 0.00 | 62 | 1004.9 |
| 20260906094420 | 36 | 160 | 9.7 | 16.1 | 0.00 | 0.00 | 0.00 | 61 | 1004.8 |
| 20260906093916 | 36 | 174 | 8.0 | 17.7 | 0.00 | 0.00 | 0.00 | 60 | 1005.2 |
| 20260906093413 | 36 | 154 | 9.7 | 16.1 | 0.00 | 0.00 | 0.00 | 60 | 1005.0 |
| 20260906092913 | 36 | 178 | 16.1 | 17.7 | 0.00 | 0.00 | 0.00 | 62 | 1005.0 |
| 20260906092412 | 36 | 142 | 9.7 | 12.9 | 0.00 | 0.00 | 0.00 | 60 | 1005.0 |
| 20260906091908 | 36 | 165 | 3.2 | 16.1 | 0.00 | 0.00 | 0.00 | 62 | 1005.0 |
| 20260906091404 | 36 | 155 | 6.4 | 16.1 | 0.00 | 0.00 | 0.00 | 61 | 1005.1 |
| 20260906090900 | 36 | 143 | 14.5 | 17.7 | 0.00 | 0.00 | 0.00 | 61 | 1005.2 |
| 20260906090359 | 35 | 90 | 1.6 | 20.9 | 0.00 | 0.00 | 0.00 | 63 | 1005.3 |
| 20260906085854 | 35 | 140 | 11.3 | 22.5 | 0.00 | 0.00 | 0.00 | 61 | 1005.3 |
| 20260906085353 | 36 | 180 | 0.0 | 14.5 | 0.00 | 0.00 | 0.00 | 62 | 1005.4 |
| 20260906084848 | 36 | 151 | 6.4 | 14.5 | 0.00 | 0.00 | 0.00 | 60 | 1005.5 |
| 20260906084348 | 36 | 138 | 9.7 | 17.7 | 0.00 | 0.00 | 0.00 | 62 | 1005.4 |
| 20260906083842 | 36 | 151 | 4.8 | 19.3 | 0.00 | 0.00 | 0.00 | 61 | 1005.6 |
| 20260906083338 | 35 | 132 | 17.7 | 19.3 | 0.00 | 0.00 | 0.00 | 62 | 1005.5 |
| 20260906082838 | 36 | 137 | 6.4 | 14.5 | 0.00 | 0.00 | 0.00 | 62 | 1005.6 |
| 20260906082333 | 36 | 147 | 11.3 | 11.3 | 0.00 | 0.00 | 0.00 | 60 | 1005.6 |
| 20260906081829 | 35 | 142 | 3.2 | 17.7 | 0.00 | 0.00 | 0.00 | 63 | 1005.7 |
| 20260906081324 | 35 | 182 | 6.4 | 16.1 | 0.00 | 0.00 | 0.00 | 62 | 1005.8 |
| 20260906080820 | 35 | 175 | 4.8 | 14.5 | 0.00 | 0.00 | 0.00 | 61 | 1005.8 |
| 20260906080316 | 35 | 141 | 9.7 | 14.5 | 0.00 | 0.00 | 0.00 | 63 | 1005.9 |
| 20260906075816 | 35 | 155 | 16.1 | 17.7 | 0.00 | 0.00 | 0.00 | 62 | 1006.0 |
| 20260906075316 | 35 | 139 | 11.3 | 16.1 | 0.00 | 0.00 | 0.00 | 62 | 1005.9 |
| 20260906074811 | 35 | 156 | 8.0 | 12.9 | 0.00 | 0.00 | 0.00 | 62 | 1006.0 |
| 20260906074311 | 35 | 117 | 9.7 | 16.1 | 0.00 | 0.00 | 0.00 | 62 | 1006.0 |
| 20260906073810 | 35 | 149 | 11.3 | 20.9 | 0.00 | 0.00 | 0.00 | 62 | 1006.1 |
| 20260906073305 | 35 | 163 | 8.0 | 16.1 | 0.00 | 0.00 | 0.00 | 63 | 1006.2 |
| 20260906072801 | 35 | 147 | 12.9 | 16.1 | 0.00 | 0.00 | 0.00 | 63 | 1006.3 |
| 20260906072257 | 35 | 135 | 6.4 | 14.5 | 0.00 | 0.00 | 0.00 | 63 | 1006.2 |
| 20260906071752 | 35 | 135 | 4.8 | 12.9 | 0.00 | 0.00 | 0.00 | 64 | 1006.2 |
| 20260906071252 | 35 | 142 | 6.4 | 11.3 | 0.00 | 0.00 | 0.00 | 63 | 1006.2 |
| 20260906032012 | 32 | 195 | 0.0 | 4.8 | 0.00 | 0.00 | 0.00 | 54 | 1005.6 |
| 20260906031508 | 32 | 195 | 0.0 | 4.8 | 0.00 | 0.00 | 0.00 | 54 | 1005.6 |
| 20260906031003 | 32 | 195 | 0.0 | 4.8 | 0.00 | 0.00 | 0.00 | 54 | 1005.6 |
| 20260906030458 | 32 | 240 | 3.2 | 4.8 | 0.00 | 0.00 | 0.00 | 54 | 1005.5 |
| 20260906025957 | 32 | 265 | 3.2 | 6.4 | 0.00 | 0.00 | 0.00 | 54 | 1005.3 |
| 20260906025457 | 31 | 242 | 4.8 | 6.4 | 0.00 | 0.00 | 0.00 | 55 | 1005.4 |
| 20260906024956 | 31 | 300 | 3.2 | 4.8 | 0.00 | 0.00 | 0.00 | 55 | 1005.2 |
| 20260906024456 | 31 | 279 | 0.0 | 3.2 | 0.00 | 0.00 | 0.00 | 55 | 1005.1 |
| 20260906023956 | 32 | 264 | 0.0 | 6.4 | 0.00 | 0.00 | 0.00 | 54 | 1005.3 |
| 20260906023452 | 32 | 250 | 8.0 | 8.0 | 0.00 | 0.00 | 0.00 | 54 | 1005.3 |
| 20260906022947 | 32 | 265 | 3.2 | 6.4 | 0.00 | 0.00 | 0.00 | 54 | 1005.1 |
| 20260906022442 | 32 | 255 | 4.8 | 6.4 | 0.00 | 0.00 | 0.00 | 54 | 1005.0 |
| 20260906021938 | 32 | 282 | 3.2 | 6.4 | 0.00 | 0.00 | 0.00 | 54 | 1004.7 |
| 20260906021438 | 31 | 307 | 4.8 | 6.4 | 0.00 | 0.00 | 0.00 | 54 | 1004.7 |
| 20260906020932 | 31 | 264 | 3.2 | 4.8 | 0.00 | 0.00 | 0.00 | 54 | 1004.9 |
| 20260906020427 | 32 | 295 | 3.2 | 6.4 | 0.00 | 0.00 | 0.00 | 54 | 1004.9 |
| 20260906015921 | 32 | 249 | 1.6 | 8.0 | 0.00 | 0.00 | 0.00 | 53 | 1004.7 |
| 20260906015421 | 32 | 323 | 3.2 | 8.0 | 0.00 | 0.00 | 0.00 | 53 | 1004.7 |
| 20260906014920 | 32 | 254 | 3.2 | 6.4 | 0.00 | 0.00 | 0.00 | 54 | 1004.8 |
| 20260906014419 | 32 | 234 | 6.4 | 6.4 | 0.00 | 0.00 | 0.00 | 53 | 1004.8 |
| 20260906013916 | 32 | 222 | 4.8 | 9.7 | 0.00 | 0.00 | 0.00 | 54 | 1004.6 |
| 20260906013411 | 32 | 258 | 4.8 | 9.7 | 0.00 | 0.00 | 0.00 | 53 | 1004.6 |
| 20260906012907 | 32 | 300 | 1.6 | 9.7 | 0.00 | 0.00 | 0.00 | 54 | 1004.6 |
| 20260906012402 | 31 | 252 | 4.8 | 11.3 | 0.00 | 0.00 | 0.00 | 55 | 1004.7 |
| 20260906011901 | 31 | 290 | 4.8 | 9.7 | 0.00 | 0.00 | 0.00 | 55 | 1004.5 |
| 20260906011356 | 32 | 321 | 4.8 | 9.7 | 0.00 | 0.00 | 0.00 | 55 | 1004.6 |
| 20260906010852 | 32 | 239 | 3.2 | 14.5 | 0.00 | 0.00 | 0.00 | 55 | 1004.6 |
| 20260906010348 | 32 | 278 | 6.4 | 11.3 | 0.00 | 0.00 | 0.00 | 55 | 1004.6 |
| 20260906005843 | 32 | 288 | 4.8 | 12.9 | 0.00 | 0.00 | 0.00 | 55 | 1004.5 |
| 20260906005342 | 32 | 252 | 4.8 | 8.0 | 0.00 | 0.00 | 0.00 | 56 | 1004.4 |
| 20260906004842 | 32 | 285 | 9.7 | 14.5 | 0.00 | 0.00 | 0.00 | 55 | 1004.6 |
| 20260906004341 | 32 | 270 | 3.2 | 9.7 | 0.00 | 0.00 | 0.00 | 56 | 1004.5 |
| 20260906003836 | 32 | 285 | 9.7 | 9.7 | 0.00 | 0.00 | 0.00 | 56 | 1004.5 |
| 20260906003332 | 32 | 280 | 3.2 | 9.7 | 0.00 | 0.00 | 0.00 | 56 | 1004.5 |
| 20260906002827 | 32 | 251 | 6.4 | 9.7 | 0.00 | 0.00 | 0.00 | 55 | 1004.4 |
| 20260906002326 | 32 | 206 | 0.0 | 11.3 | 0.00 | 0.00 | 0.00 | 55 | 1004.3 |
| 20260906001823 | 32 | 253 | 4.8 | 8.0 | 0.00 | 0.00 | 0.00 | 54 | 1004.4 |
| 20260906001318 | 32 | 327 | 4.8 | 11.3 | 0.00 | 0.00 | 0.00 | 54 | 1004.4 |
| 20260906000813 | 32 | 281 | 4.8 | 8.0 | 0.00 | 0.00 | 0.00 | 54 | 1004.4 |
| 20260906000307 | 32 | 266 | 4.8 | 8.0 | 0.00 | 0.00 | 0.00 | 52 | 1004.4 |
| 20260905235802 | 32 | 251 | 4.8 | 6.4 | 0.00 | 0.00 | 0.00 | 53 | 1004.5 |
| 20260905235306 | 32 | 228 | 0.0 | 6.4 | 0.00 | 0.00 | 0.00 | 52 | 1004.4 |
| 20260905234758 | 32 | 243 | 0.0 | 4.8 | 0.00 | 0.00 | 0.00 | 52 | 1004.4 |
| 20260905234253 | 33 | 206 | 3.2 | 6.4 | 0.00 | 0.00 | 0.00 | 50 | 1004.4 |
| 20260905233748 | 32 | 243 | 1.6 | 4.8 | 0.00 | 0.00 | 0.00 | 54 | 1004.5 |
| 20260905233248 | 32 | 221 | 0.0 | 8.0 | 0.00 | 0.00 | 0.00 | 54 | 1004.6 |
| 20260905232747 | 32 | 166 | 1.6 | 8.0 | 0.00 | 0.00 | 0.00 | 56 | 1004.4 |
| 20260905232243 | 32 | 249 | 6.4 | 6.4 | 0.00 | 0.00 | 0.00 | 57 | 1004.3 |
| 20260905231739 | 32 | 240 | 1.6 | 8.0 | 0.00 | 0.00 | 0.00 | 54 | 1004.4 |
| 20260905231234 | 33 | 218 | 4.8 | 9.7 | 0.00 | 0.00 | 0.00 | 53 | 1004.4 |
| 20260905230730 | 33 | 245 | 0.0 | 6.4 | 0.00 | 0.00 | 0.00 | 53 | 1004.5 |
| 20260905230228 | 33 | 241 | 3.2 | 11.3 | 0.00 | 0.00 | 0.00 | 51 | 1004.6 |
| 20260905225727 | 32 | 258 | 4.8 | 6.4 | 0.00 | 0.00 | 0.00 | 53 | 1004.5 |
| 20260905225223 | 32 | 248 | 4.8 | 6.4 | 0.00 | 0.00 | 0.00 | 54 | 1004.4 |
| 20260905224722 | 32 | 266 | 8.0 | 11.3 | 0.00 | 0.00 | 0.00 | 53 | 1004.5 |
| 20260905224217 | 33 | 270 | 3.2 | 4.8 | 0.00 | 0.00 | 0.00 | 51 | 1004.5 |
| 20260905223714 | 33 | 270 | 1.6 | 8.0 | 0.00 | 0.00 | 0.00 | 49 | 1004.5 |
| 20260905223210 | 33 | 247 | 6.4 | 9.7 | 0.00 | 0.00 | 0.00 | 50 | 1004.6 |
| 20260905222706 | 33 | 263 | 1.6 | 8.0 | 0.00 | 0.00 | 0.00 | 49 | 1004.8 |
| 20260905222205 | 34 | 171 | 0.0 | 3.2 | 0.00 | 0.00 | 0.00 | 47 | 1004.6 |
| 20260905221700 | 34 | 214 | 6.4 | 14.5 | 0.00 | 0.00 | 0.00 | 46 | 1004.6 |
| 20260905221158 | 35 | 276 | 3.2 | 9.7 | 0.00 | 0.00 | 0.00 | 46 | 1004.8 |
| 20260905220653 | 34 | 180 | 3.2 | 9.7 | 0.00 | 0.00 | 0.00 | 47 | 1004.9 |
| 20260905220149 | 34 | 243 | 1.6 | 6.4 | 0.00 | 0.00 | 0.00 | 46 | 1004.6 |
| 20260905215648 | 34 | 240 | 0.0 | 12.9 | 0.00 | 0.00 | 0.00 | 46 | 1004.9 |
| 20260905215144 | 34 | 255 | 3.2 | 4.8 | 0.00 | 0.00 | 0.00 | 47 | 1004.7 |
| 20260905214640 | 34 | 240 | 1.6 | 9.7 | 0.00 | 0.00 | 0.00 | 46 | 1004.8 |
| 20260905214135 | 34 | 251 | 3.2 | 4.8 | 0.00 | 0.00 | 0.00 | 46 | 1004.8 |
| 20260905213630 | 35 | 198 | 3.2 | 4.8 | 0.00 | 0.00 | 0.00 | 45 | 1004.9 |
| 20260905213125 | 35 | 254 | 0.0 | 11.3 | 0.00 | 0.00 | 0.00 | 44 | 1005.0 |
| 20260905212621 | 35 | 258 | 6.4 | 6.4 | 0.00 | 0.00 | 0.00 | 44 | 1005.1 |
| 20260905212120 | 35 | 206 | 3.2 | 9.7 | 0.00 | 0.00 | 0.00 | 43 | 1005.1 |
| 20260905211615 | 35 | 282 | 4.8 | 9.7 | 0.00 | 0.00 | 0.00 | 44 | 1005.0 |
| 20260905211111 | 35 | 225 | 3.2 | 4.8 | 0.00 | 0.00 | 0.00 | 44 | 1005.2 |
| 20260905210608 | 34 | 240 | 1.6 | 4.8 | 0.00 | 0.00 | 0.00 | 46 | 1005.1 |
| 20260905210107 | 33 | 135 | 4.8 | 4.8 | 0.00 | 0.00 | 0.00 | 49 | 1005.3 |
| 20260905205606 | 34 | 150 | 0.0 | 6.4 | 0.00 | 0.00 | 0.00 | 49 | 1005.2 |
| 20260905205106 | 34 | 203 | 1.6 | 4.8 | 0.00 | 0.00 | 0.00 | 50 | 1005.1 |
| 20260905204600 | 34 | 153 | 4.8 | 8.0 | 0.00 | 0.00 | 0.00 | 50 | 1005.2 |
| 20260905204056 | 34 | 180 | 3.2 | 6.4 | 0.00 | 0.00 | 0.00 | 50 | 1005.4 |
| 20260905203555 | 34 | 144 | 4.8 | 4.8 | 0.00 | 0.00 | 0.00 | 51 | 1005.3 |
| 20260905203051 | 34 | 177 | 3.2 | 4.8 | 0.00 | 0.00 | 0.00 | 51 | 1005.4 |
| 20260905202546 | 34 | 174 | 0.0 | 4.8 | 0.00 | 0.00 | 0.00 | 51 | 1005.4 |
| 20260905202042 | 34 | 176 | 3.2 | 6.4 | 0.00 | 0.00 | 0.00 | 52 | 1005.6 |
| 20260905201537 | 33 | 165 | 3.2 | 6.4 | 0.00 | 0.00 | 0.00 | 60 | 1005.6 |
| 20260905201036 | 33 | 144 | 4.8 | 6.4 | 0.00 | 0.00 | 0.00 | 64 | 1005.6 |
| 20260905200532 | 32 | 153 | 4.8 | 6.4 | 0.00 | 0.00 | 0.00 | 66 | 1005.6 |
| 20260905200031 | 32 | 176 | 6.4 | 9.7 | 0.00 | 0.00 | 0.00 | 68 | 1005.6 |
| 20260905195526 | 32 | 169 | 8.0 | 8.0 | 0.00 | 0.00 | 0.00 | 69 | 1005.8 |
| 20260905195022 | 32 | 191 | 4.8 | 11.3 | 0.00 | 0.00 | 0.00 | 69 | 1005.9 |
| 20260905194521 | 32 | 162 | 4.8 | 12.9 | 0.00 | 0.00 | 0.00 | 69 | 1005.7 |
| 20260905194021 | 32 | 141 | 6.4 | 9.7 | 0.00 | 0.00 | 0.00 | 68 | 1005.6 |
| 20260905193521 | 32 | 157 | 4.8 | 12.9 | 0.00 | 0.00 | 0.00 | 68 | 1005.8 |
| 20260905193017 | 32 | 171 | 6.4 | 11.3 | 0.00 | 0.00 | 0.00 | 69 | 1005.8 |
| 20260905192512 | 32 | 160 | 9.7 | 11.3 | 0.00 | 0.00 | 0.00 | 69 | 1005.8 |
| 20260905192009 | 32 | 120 | 6.4 | 12.9 | 0.00 | 0.00 | 0.00 | 70 | 1005.7 |
| 20260905191507 | 32 | 157 | 9.7 | 12.9 | 0.00 | 0.00 | 0.00 | 69 | 1005.7 |
| 20260905191006 | 32 | 168 | 14.5 | 14.5 | 0.00 | 0.00 | 0.00 | 71 | 1005.8 |
| 20260905190504 | 32 | 162 | 4.8 | 12.9 | 0.00 | 0.00 | 0.00 | 71 | 1005.9 |
| 20260905190003 | 32 | 179 | 14.5 | 16.1 | 0.00 | 0.00 | 0.00 | 70 | 1005.6 |
| 20260905185458 | 32 | 129 | 6.4 | 14.5 | 0.00 | 0.00 | 0.00 | 70 | 1005.8 |
| 20260905184956 | 32 | 133 | 4.8 | 12.9 | 0.00 | 0.00 | 0.00 | 71 | 1005.9 |
| 20260905184452 | 32 | 116 | 6.4 | 12.9 | 0.00 | 0.00 | 0.00 | 71 | 1005.9 |
| 20260905183950 | 32 | 159 | 8.0 | 17.7 | 0.00 | 0.00 | 0.00 | 74 | 1005.8 |
| 20260905183445 | 32 | 170 | 6.4 | 14.5 | 0.00 | 0.00 | 0.00 | 74 | 1005.9 |
| 20260905182940 | 32 | 157 | 14.5 | 14.5 | 0.00 | 0.00 | 0.00 | 72 | 1005.9 |
| 20260905182439 | 32 | 155 | 6.4 | 12.9 | 0.00 | 0.00 | 0.00 | 73 | 1006.0 |
| 20260905181935 | 32 | 108 | 3.2 | 14.5 | 0.00 | 0.00 | 0.00 | 73 | 1005.9 |
| 20260905181435 | 32 | 176 | 12.9 | 17.7 | 0.00 | 0.00 | 0.00 | 74 | 1005.9 |
| 20260905180934 | 32 | 174 | 6.4 | 12.9 | 0.00 | 0.00 | 0.00 | 77 | 1005.8 |
| 20260905180429 | 32 | 180 | 4.8 | 14.5 | 0.00 | 0.00 | 0.00 | 78 | 1005.8 |
| 20260905175924 | 32 | 180 | 12.9 | 22.5 | 0.00 | 0.00 | 0.00 | 78 | 1005.6 |
| 20260905175423 | 32 | 166 | 14.5 | 24.1 | 0.00 | 0.00 | 0.00 | 78 | 1005.8 |
| 20260905174919 | 32 | 149 | 16.1 | 20.9 | 0.00 | 0.00 | 0.00 | 78 | 1005.8 |
| 20260905174414 | 32 | 137 | 9.7 | 22.5 | 0.00 | 0.00 | 0.00 | 77 | 1005.8 |
| 20260905173910 | 32 | 160 | 9.7 | 20.9 | 0.00 | 0.00 | 0.00 | 78 | 1005.5 |
| 20260905173407 | 32 | 152 | 8.0 | 20.9 | 0.00 | 0.00 | 0.00 | 78 | 1005.6 |
| 20260905172906 | 32 | 67 | 3.2 | 22.5 | 0.00 | 0.00 | 0.00 | 77 | 1005.7 |
| 20260905172404 | 32 | 178 | 11.3 | 20.9 | 0.00 | 0.00 | 0.00 | 77 | 1005.5 |
| 20260905171900 | 32 | 121 | 6.4 | 20.9 | 0.00 | 0.00 | 0.00 | 77 | 1005.8 |
| 20260905171357 | 32 | 165 | 9.7 | 16.1 | 0.00 | 0.00 | 0.00 | 79 | 1005.6 |
| 20260905170853 | 32 | 157 | 14.5 | 17.7 | 0.00 | 0.00 | 0.00 | 79 | 1005.5 |
| 20260905170349 | 32 | 187 | 6.4 | 14.5 | 0.00 | 0.00 | 0.00 | 78 | 1005.4 |
| 20260905165848 | 32 | 134 | 19.3 | 19.3 | 0.00 | 0.00 | 0.00 | 78 | 1005.2 |
| 20260905165343 | 32 | 165 | 8.0 | 20.9 | 0.00 | 0.00 | 0.00 | 79 | 1005.3 |
| 20260905164838 | 32 | 176 | 6.4 | 16.1 | 0.00 | 0.00 | 0.00 | 79 | 1005.2 |
| 20260905164333 | 32 | 134 | 9.7 | 17.7 | 0.00 | 0.00 | 0.00 | 79 | 1005.0 |
| 20260905163828 | 32 | 174 | 12.9 | 19.3 | 0.00 | 0.00 | 0.00 | 78 | 1005.1 |
| 20260905163325 | 32 | 132 | 12.9 | 17.7 | 0.00 | 0.00 | 0.00 | 78 | 1005.0 |
| 20260905162821 | 32 | 175 | 12.9 | 22.5 | 0.00 | 0.00 | 0.00 | 78 | 1004.9 |
| 20260905162320 | 32 | 170 | 16.1 | 20.9 | 0.00 | 0.00 | 0.00 | 78 | 1004.7 |
| 20260905161815 | 32 | 132 | 12.9 | 17.7 | 0.00 | 0.00 | 0.00 | 78 | 1004.7 |
| 20260905161314 | 32 | 177 | 8.0 | 20.9 | 0.00 | 0.00 | 0.00 | 78 | 1004.6 |
| 20260905160812 | 32 | 166 | 11.3 | 22.5 | 0.00 | 0.00 | 0.00 | 78 | 1004.6 |
| 20260905160307 | 32 | 175 | 20.9 | 25.7 | 0.00 | 0.00 | 0.00 | 77 | 1004.6 |
| 20260905155802 | 32 | 141 | 8.0 | 22.5 | 0.00 | 0.00 | 0.00 | 77 | 1004.7 |
| 20260905155301 | 32 | 149 | 0.0 | 25.7 | 0.00 | 0.00 | 0.00 | 77 | 1004.4 |
| 20260905154801 | 32 | 152 | 9.7 | 24.1 | 0.00 | 0.00 | 0.00 | 78 | 1004.4 |
| 20260905154257 | 32 | 150 | 11.3 | 32.2 | 0.00 | 0.00 | 0.00 | 77 | 1004.1 |
| 20260905153752 | 32 | 151 | 22.5 | 29.0 | 0.00 | 0.00 | 0.00 | 77 | 1004.4 |
| 20260905153248 | 32 | 191 | 4.8 | 24.1 | 0.00 | 0.00 | 0.00 | 77 | 1004.2 |
| 20260905152743 | 32 | 181 | 9.7 | 24.1 | 0.00 | 0.00 | 0.00 | 77 | 1004.4 |
| 20260905152242 | 32 | 180 | 17.7 | 25.7 | 0.00 | 0.00 | 0.00 | 77 | 1004.3 |
| 20260905151742 | 32 | 106 | 4.8 | 22.5 | 0.00 | 0.00 | 0.00 | 77 | 1004.0 |
| 20260905151238 | 33 | 171 | 11.3 | 14.5 | 0.00 | 0.00 | 0.00 | 77 | 1004.0 |
| 20260905150737 | 32 | 147 | 9.7 | 25.7 | 0.00 | 0.00 | 0.00 | 76 | 1004.0 |